Temp
72 73 72 72 72 73 73 75 75 74 73 70 68 67 68 67 68 71 72 73 73 72 71 69 68 68 66 66 66 64 62 62 60 57 57 58 60 59 61 60 61 62 62
68 69 69 67 67 67 68 70 73 74 73 71 70 70 69 70 72 71 73 74 73 72 71 70 68 68 67 66 66 65 62 63 60 59 54 54 56 61 64 65 66 66 66
65 65 65 64 63 62 63 67 69 71 73 72 70 68 68 67 66 69 69 70 71 71 71 70 69 68 68 67 66 66 63 61 61 65 61 53 51 51 57 62 65 65 59
64 65 64 62 61 61 63 65 67 69 72 71 69 67 65 63 66 67 68 69 70 71 71 71 70 69 68 67 67 67 66 66 63 63 66 65 59 54 52 55 56 59 61
63 63 63 64 63 62 61 63 66 67 68 68 67 65 65 66 66 67 68 68 69 71 71 70 69 69 69 69 68 68 68 68 65 64 63 62 61 61 57 55 59 59 61
63 64 64 64 61 61 61 62 64 65 65 65 66 65 63 63 63 63 64 65 66 67 67 69 69 69 69 68 68 68 67 66 66 65 65 63 59 58 58 56 56 57 62
62 61 60 60 60 60 61 64 62 62 64 63 64 64 63 63 62 63 63 64 64 65 66 66 67 68 68 68 68 68 67 66 65 65 64 65 65 64 61 58 57 55 59
61 60 60 59 59 60 60 61 62 62 63 62 62 63 63 62 63 63 65 65 66 66 67 67 67 67 68 68 68 68 67 67 66 65 65 65 66 66 65 61 58 55 57
61 60 59 59 59 59 60 61 61 62 62 62 62 62 62 62 61 62 62 62 63 68 67 65 66 67 69 69 69 67 68 67 67 65 65 65 66 66 65 64 62 58 54
61 60 60 60 60 59 61 61 62 62 62 62 61 63 62 62 62 62 61 62 62 63 63 63 63 64 65 66 66 67 67 67 67 67 66 66 66 66 64 63 62 61 58
59 59 60 60 61 61 61 61 61 61 60 61 61 60 60 61 62 62 63 63 63 63 63 63 63 63 62 64 65 66 66 65 66 66 66 65 66 65 64 63 62 60 60
59 60 60 60 60 60 61 60 60 60 60 60 59 59 59 59 58 59 60 61 61 63 63 63 63 64 63 63 62 63 64 63 63 64 65 65 66 64 64 63 61 61 61
59 60 60 60 60 60 60 59 59 58 59 58 57 57 57 56 56 57 59 60 60 60 61 61 61 61 62 63 63 63 63 62 63 63 63 64 64 63 64 63 62 61 60
59 58 57 57 58 59 58 57 57 57 57 57 55 55 55 55 56 57 57 58 59 58 59 60 60 60 61 62 62 62 59 59 61 61 61 62 62 62 63 63 62 60 59
58 57 56 55 56 55 55 55 55 55 56 55 54 54 54 55 55 55 56 57 57 58 58 58 58 59 60 62 58 59 58 57 57 58 59 60 58 55 57 61 62 60 58
57 57 57 55 53 51 52 54 53 53 54 52 53 54 54 53 53 53 54 54 55 55 56 56 56 56 59 56 56 56 55 55 55 55 57 58 55 57 57 56 56 58 58
55 54 52 51 51 51 52 49 50 53 54 51 53 52 52 51 51 52 52 52 51 53 52 54 54 54 55 55 55 53 53 53 53 54 54 55 58 55 57 57 56 55 55
53 51 50 49 49 50 50 49 50 50 49 49 49 50 49 49 50 50 49 49 51 50 51 52 52 53 55 53 52 51 53 51 51 51 52 53 53 55 55 55 55 56 57
49 49 48 48 48 48 47 47 46 46 47 47 46 47 48 47 47 47 47 48 48 48 49 51 51 51 52 51 51 51 50 49 49 52 52 53 51 52 52 51 51 53 55
51 47 47 47 46 46 46 44 43 43 43 45 45 46 46 46 45 45 45 47 47 48 49 49 51 51 50 50 51 50 49 46 47 48 48 49 49 50 50 49 48 49 52
47 49 48 44 43 44 43 41 41 40 43 44 44 44 45 44 45 45 45 45 45 46 46 47 48 48 48 48 50 49 47 46 44 43 45 47 48 48 48 48 47 46 51
47 47 43 42 44 45 42 39 38 42 43 43 43 42 43 44 45 42 43 43 43 42 43 44 44 46 46 48 48 48 48 47 42 41 43 45 46 46 46 46 48 48 48
43 43 41 41 42 43 41 37 39 41 41 40 40 40 41 41 42 40 40 39 41 40 41 41 40 40 43 43 46 47 47 45 42 42 43 45 45 45 45 46 47 47 41
41 41 39 39 38 39 40 38 39 40 39 37 37 38 38 39 39 40 40 39 38 39 39 38 37 37 39 40 42 43 42 43 42 42 43 44 46 46 45 45 44 39 37
40 39 37 37 36 36 36 37 39 38 37 37 37 36 37 36 36 38 37 38 40 40 38 37 37 36 36 40 44 42 40 40 41 42 42 41 40 40 40 37 34 34 36
37 36 35 34 34 35 35 37 38 37 35 35 35 35 35 35 35 34 35 41 41 41 42 42 41 41 43 43 43 42 42 42 43 40 38 36 36 36 37 34 32 33 32
MSLP
1006.79 1006.66 1006.72 1006.50 1006.31 1006.22 1006.31 1006.06 1006.13 1006.33 1006.79 1007.52 1008.11 1008.55 1008.84 1008.99 1008.89 1008.77 1008.59 1008.77 1008.85 1009.00 1009.28 1009.55 1009.91 1010.25 1010.44 1010.50 1010.60 1010.83 1011.04 1011.01 1011.11 1011.53 1011.38 1011.23 1010.71 1010.36 1010.11 1009.98 1009.83 1009.64 1009.64
1007.82 1007.87 1007.83 1007.78 1007.61 1007.38 1006.99 1006.69 1006.46 1006.18 1006.50 1006.87 1007.32 1007.77 1008.20 1008.19 1008.28 1008.25 1008.08 1007.90 1008.13 1008.32 1008.66 1008.83 1009.10 1009.43 1009.69 1009.78 1009.85 1009.95 1010.20 1010.32 1010.57 1010.93 1011.19 1011.00 1010.40 1009.45 1009.22 1009.02 1008.77 1008.39 1008.68
1008.69 1008.63 1008.61 1008.62 1008.55 1008.33 1007.89 1007.46 1007.13 1006.90 1006.38 1006.69 1007.12 1007.54 1007.76 1007.89 1007.95 1007.83 1007.98 1008.08 1008.17 1008.25 1008.57 1008.70 1008.83 1008.95 1009.09 1008.96 1009.03 1009.20 1009.37 1009.51 1009.74 1009.77 1010.09 1010.07 1009.30 1008.82 1008.08 1007.82 1007.70 1007.53 1007.57
1008.95 1009.12 1009.14 1009.19 1009.24 1008.92 1008.39 1007.97 1007.55 1007.21 1006.96 1006.87 1007.24 1007.66 1008.05 1008.32 1008.01 1007.89 1007.46 1007.26 1007.24 1007.19 1007.22 1007.35 1007.59 1007.86 1008.08 1008.18 1008.15 1008.19 1008.14 1008.42 1008.35 1008.73 1008.47 1008.48 1008.34 1008.40 1007.94 1007.37 1006.96 1007.00 1006.93
1009.23 1009.42 1009.61 1009.70 1009.68 1009.34 1008.99 1008.53 1008.16 1007.83 1007.60 1007.50 1007.62 1007.79 1007.82 1007.67 1007.49 1007.27 1007.08 1006.80 1006.50 1006.31 1006.44 1006.61 1006.88 1006.99 1007.12 1006.96 1007.04 1007.11 1007.04 1007.02 1007.20 1007.11 1007.46 1007.62 1007.66 1007.49 1007.51 1006.69 1006.18 1006.29 1005.86
1009.51 1009.75 1009.83 1009.97 1009.95 1009.66 1009.38 1009.17 1008.94 1008.75 1008.44 1008.26 1008.10 1008.15 1008.06 1007.87 1007.63 1007.35 1007.15 1006.84 1006.41 1006.03 1005.84 1005.96 1006.15 1006.26 1006.33 1006.29 1006.24 1006.25 1006.18 1006.03 1005.93 1005.90 1006.02 1006.15 1006.29 1006.17 1006.53 1006.31 1005.73 1005.61 1005.02
1009.74 1010.07 1010.25 1010.20 1010.06 1010.06 1009.80 1009.58 1009.50 1009.43 1009.25 1008.95 1008.70 1008.49 1008.36 1008.18 1008.00 1007.72 1007.37 1006.98 1006.59 1006.26 1005.79 1005.42 1005.34 1005.34 1005.36 1005.47 1005.62 1005.55 1005.23 1005.12 1005.12 1005.01 1004.84 1004.88 1004.68 1004.87 1005.17 1005.42 1004.62 1004.83 1004.24
1009.85 1010.24 1010.53 1010.55 1010.44 1010.38 1010.16 1009.95 1009.79 1009.68 1009.48 1009.29 1009.11 1008.74 1008.48 1008.39 1008.17 1007.86 1007.56 1007.20 1006.82 1006.35 1005.81 1005.49 1005.23 1004.93 1004.75 1004.67 1004.73 1004.79 1004.62 1004.49 1004.31 1004.13 1003.92 1003.86 1003.72 1003.76 1003.82 1003.91 1004.31 1003.86 1003.42
1009.94 1010.35 1010.55 1010.58 1010.44 1010.38 1010.28 1010.20 1010.09 1009.94 1009.74 1009.58 1009.31 1009.07 1008.76 1008.57 1008.40 1007.94 1007.58 1007.29 1006.85 1006.40 1005.91 1005.54 1005.26 1004.83 1004.46 1004.16 1003.84 1003.66 1003.62 1003.48 1003.28 1003.10 1002.98 1002.95 1002.65 1002.55 1002.61 1002.81 1002.95 1002.81 1002.18
1010.08 1010.51 1010.72 1010.74 1010.64 1010.33 1010.20 1010.18 1010.16 1010.13 1010.02 1009.83 1009.52 1009.28 1009.01 1008.67 1008.37 1008.04 1007.83 1007.46 1007.02 1006.57 1006.16 1005.57 1005.06 1004.81 1004.53 1003.90 1003.45 1002.94 1002.70 1002.46 1002.28 1001.96 1001.75 1001.46 1001.38 1001.39 1001.50 1001.57 1001.69 1001.79 1001.33
1010.07 1010.40 1010.55 1010.55 1010.52 1010.29 1010.21 1010.26 1010.27 1010.28 1010.25 1010.14 1009.90 1009.74 1009.40 1009.03 1008.81 1008.58 1008.31 1007.98 1007.52 1007.05 1006.58 1005.94 1005.27 1004.61 1004.38 1004.02 1003.39 1002.76 1002.33 1001.85 1001.46 1001.11 1000.84 1000.48 1000.37 1000.22 1000.41 1000.63 1000.57 1000.54 1000.43
1009.83 1010.24 1010.49 1010.62 1010.67 1010.61 1010.39 1010.52 1010.66 1010.70 1010.69 1010.52 1010.37 1010.20 1009.74 1009.46 1009.26 1009.01 1008.63 1008.21 1007.77 1007.27 1006.77 1006.27 1005.53 1004.83 1004.16 1003.68 1003.33 1002.75 1002.16 1001.73 1001.18 1000.72 1000.22 999.81 999.61 999.29 999.28 999.41 999.36 999.33 999.25
1009.91 1010.13 1010.33 1010.56 1010.69 1010.75 1010.84 1010.92 1011.14 1011.25 1011.16 1010.97 1010.74 1010.48 1010.21 1009.97 1009.69 1009.26 1008.79 1008.28 1007.89 1007.52 1006.80 1006.34 1005.60 1004.76 1004.16 1003.42 1002.68 1002.10 1001.69 1001.26 1000.83 1000.45 999.98 999.38 998.85 998.25 997.97 997.85 997.69 997.40 997.58
1009.93 1010.35 1010.71 1010.93 1011.10 1011.23 1011.42 1011.44 1011.59 1011.71 1011.62 1011.40 1011.12 1010.82 1010.49 1010.23 1009.82 1009.38 1008.95 1008.47 1007.86 1007.46 1006.86 1006.17 1005.47 1004.69 1004.02 1003.26 1002.49 1001.79 1001.50 1001.11 1000.59 1000.04 999.45 998.78 998.20 997.62 997.05 996.62 996.18 996.13 996.14
1010.00 1010.58 1011.08 1011.52 1011.66 1011.93 1012.16 1012.31 1012.41 1012.35 1012.12 1011.75 1011.40 1011.02 1010.56 1010.17 1009.91 1009.63 1009.16 1008.66 1008.05 1007.41 1006.86 1006.05 1005.32 1004.56 1003.75 1002.97 1002.69 1002.17 1001.51 1000.96 1000.26 999.64 998.99 998.27 997.56 997.20 996.66 996.19 995.38 995.12 994.83
1010.29 1010.98 1011.59 1011.94 1012.44 1012.79 1012.93 1012.85 1012.88 1012.80 1012.56 1012.26 1012.00 1011.51 1011.02 1010.68 1010.34 1009.84 1009.24 1008.63 1008.05 1007.34 1006.73 1006.01 1005.13 1004.46 1003.70 1003.02 1002.68 1002.03 1001.41 1000.67 999.98 999.15 998.29 997.61 997.00 996.22 995.76 995.33 994.75 994.32 994.06
1010.66 1011.48 1012.22 1012.79 1013.15 1013.30 1013.24 1013.37 1013.34 1013.24 1012.99 1012.66 1012.41 1012.08 1011.81 1011.39 1010.92 1010.28 1009.54 1008.88 1008.17 1007.42 1006.66 1006.02 1005.22 1004.46 1003.76 1003.03 1002.37 1001.91 1001.27 1000.69 1000.17 999.40 998.49 997.28 996.32 995.77 995.11 994.33 993.77 993.19 992.65
1011.70 1012.44 1013.03 1013.38 1013.61 1013.68 1013.78 1013.89 1013.97 1013.92 1013.60 1013.18 1012.77 1012.51 1012.22 1011.66 1010.92 1010.24 1009.51 1008.88 1008.19 1007.41 1006.64 1005.80 1005.06 1004.28 1003.60 1002.87 1002.44 1002.10 1001.48 1000.64 999.85 999.23 998.50 997.43 996.35 995.79 994.94 994.20 993.16 992.39 991.74
1012.87 1013.41 1013.76 1014.05 1014.24 1014.36 1014.46 1014.56 1014.61 1014.43 1014.14 1013.66 1013.37 1012.98 1012.46 1011.76 1010.94 1010.23 1009.63 1008.97 1008.14 1007.40 1006.58 1005.69 1004.85 1004.12 1003.37 1002.72 1002.26 1001.73 1001.26 1000.58 999.64 998.60 997.97 997.40 996.43 995.49 994.96 994.28 993.06 991.65 991.00
1013.48 1013.95 1014.37 1014.70 1014.83 1014.80 1014.78 1014.76 1014.70 1014.57 1014.20 1013.73 1013.38 1012.84 1012.19 1011.59 1010.70 1010.03 1009.55 1008.89 1008.23 1007.39 1006.40 1005.49 1004.56 1003.76 1003.21 1002.65 1002.23 1001.79 1001.02 1000.13 999.70 998.73 997.89 997.24 996.31 995.16 994.72 994.01 992.93 991.46 990.87
1014.16 1014.48 1014.91 1015.22 1015.24 1015.02 1014.92 1014.98 1014.83 1014.72 1014.25 1013.78 1013.04 1012.52 1011.98 1011.49 1010.60 1009.97 1009.44 1008.79 1008.15 1007.21 1006.37 1005.32 1004.34 1003.55 1003.14 1002.78 1002.03 1001.59 1000.93 1000.14 999.53 998.64 997.41 996.66 995.83 994.79 993.97 993.38 992.46 991.16 990.41
1014.67 1014.90 1015.14 1015.28 1015.22 1015.14 1014.98 1014.93 1014.73 1014.49 1013.81 1013.40 1012.96 1012.52 1012.03 1011.41 1010.72 1010.12 1009.34 1008.80 1008.10 1007.21 1006.06 1005.12 1004.43 1003.81 1003.42 1002.73 1002.13 1001.38 1000.74 1000.28 999.73 998.42 997.33 996.41 995.37 994.16 993.00 992.02 991.09 990.34 989.60
1014.91 1015.14 1015.41 1015.37 1015.24 1015.04 1015.00 1014.87 1014.66 1014.30 1013.64 1013.46 1013.10 1012.56 1011.87 1011.19 1010.73 1010.12 1009.43 1008.73 1008.00 1007.20 1006.08 1005.44 1004.67 1004.05 1003.35 1002.57 1001.87 1001.11 1000.43 999.94 999.21 998.30 997.13 995.68 994.27 992.86 991.65 990.74 990.06 989.27 988.89
1015.11 1015.44 1015.49 1015.48 1015.46 1015.18 1015.09 1015.04 1014.63 1014.07 1013.72 1013.39 1012.85 1012.15 1011.56 1011.01 1010.65 1010.13 1009.46 1008.79 1007.98 1006.95 1006.29 1005.64 1004.94 1004.16 1003.22 1002.42 1001.72 1000.89 1000.18 999.44 998.59 997.62 996.13 994.61 993.19 991.77 990.93 990.02 989.08 988.47 988.53
1015.43 1015.57 1015.64 1015.60 1015.35 1015.25 1015.28 1014.86 1014.27 1013.96 1013.60 1013.08 1012.49 1011.94 1011.48 1010.99 1010.38 1009.89 1009.41 1008.60 1007.80 1007.24 1006.50 1005.86 1005.19 1004.27 1003.16 1002.26 1001.60 1001.01 1000.08 999.33 998.30 996.86 995.44 994.11 992.98 991.63 990.81 990.34 990.06 989.76 989.77
1015.59 1015.73 1015.67 1015.60 1015.42 1015.15 1014.74 1014.39 1014.00 1013.73 1013.39 1012.89 1012.46 1012.08 1011.51 1010.95 1010.45 1009.70 1008.68 1008.21 1007.73 1007.05 1006.47 1005.77 1004.91 1004.01 1003.02 1002.41 1001.53 1000.73 999.91 998.75 997.43 996.35 995.40 994.33 993.42 992.35 991.58 991.15 990.96 990.74 990.84
Wind_Speed
9 10 10 11 11 10 9 6 8 9 6 5 5 4 6 4 4 6 9 10 11 11 12 9 10 8 9 10 10 8 8 8 4 3 4 5 7 7 7 5 6 8 7
9 9 9 10 10 10 10 9 7 4 5 4 4 4 5 7 6 6 10 12 11 11 10 11 11 11 9 11 11 11 7 7 6 7 2 6 6 8 10 11 12 14 10
8 8 9 9 9 9 9 9 8 9 3 4 3 2 3 3 3 5 4 5 7 8 8 10 9 10 10 10 11 11 12 9 6 12 8 3 7 2 5 12 11 12 6
7 7 8 8 8 8 8 7 7 7 7 6 1 5 4 4 4 5 5 6 9 11 12 12 11 11 10 13 11 10 12 12 12 6 11 15 8 6 5 4 5 5 6
7 8 8 7 7 8 8 8 8 8 8 8 6 3 4 4 4 5 6 7 7 11 11 11 11 12 10 13 14 13 14 12 12 12 8 11 12 13 13 11 10 6 7
7 7 6 6 6 7 7 8 9 8 9 8 8 6 7 7 5 5 5 5 5 5 7 9 10 11 12 13 13 13 15 14 13 12 12 12 7 12 10 12 15 11 10
6 5 6 6 7 9 9 7 8 8 8 8 8 8 8 7 7 7 5 6 4 4 6 7 9 10 11 12 12 13 14 15 14 15 12 11 13 12 10 12 14 10 8
5 6 6 6 6 7 8 8 8 7 8 8 8 8 8 5 5 6 6 6 5 6 7 6 6 7 10 11 11 11 12 13 12 17 15 12 13 12 12 13 11 12 11
5 6 5 4 5 6 6 6 7 7 8 8 7 7 7 7 6 7 6 5 6 6 8 7 8 8 7 10 12 9 12 13 14 14 15 14 13 12 11 12 13 14 14
7 4 4 4 3 3 3 6 6 6 6 7 6 6 7 7 7 7 7 7 7 7 8 8 7 7 8 8 9 9 11 12 12 12 16 15 13 14 12 12 13 13 15
5 3 2 2 1 3 4 5 6 6 7 7 7 8 7 8 8 9 10 11 11 11 11 9 8 7 8 9 9 11 12 13 14 14 15 17 17 13 12 12 13 13 13
5 4 2 2 4 3 3 6 8 8 7 7 7 8 7 7 7 7 9 10 11 11 12 13 13 13 10 9 9 12 12 13 14 15 16 19 14 17 14 12 16 14 15
5 4 2 0 3 5 6 7 7 7 7 7 7 7 7 7 7 9 10 11 11 12 12 12 13 13 13 13 12 11 12 12 12 13 15 17 17 18 15 15 16 14 13
7 2 1 5 7 7 7 7 7 7 6 7 7 7 7 7 8 9 11 11 11 12 12 13 14 14 14 14 14 12 10 10 12 12 13 16 17 19 18 16 17 15 14
5 5 6 6 6 7 8 8 7 7 9 8 7 8 7 8 9 11 12 13 13 12 13 14 14 14 12 11 13 16 16 13 14 14 14 15 16 19 20 14 17 15 13
6 6 6 7 9 8 7 6 7 8 8 7 9 8 8 8 9 10 11 12 12 13 14 15 14 15 11 17 21 18 12 13 13 14 16 15 16 15 19 21 23 23 19
7 7 8 8 6 6 6 7 8 9 11 8 10 9 11 11 11 11 11 11 11 12 12 13 14 15 16 20 22 15 11 12 14 14 15 16 12 13 14 17 18 22 26
10 10 6 6 7 7 7 8 9 9 9 10 8 10 12 12 12 12 12 12 13 12 13 14 12 13 12 16 15 18 15 14 16 15 16 16 18 17 16 15 14 17 16
7 6 6 6 6 6 7 7 7 7 8 8 10 11 11 12 13 13 13 13 13 12 12 13 15 13 12 13 15 17 14 14 17 16 16 18 18 21 23 18 17 17 18
6 7 7 6 6 6 6 6 6 6 6 8 10 10 11 12 13 13 14 12 12 15 12 14 14 16 11 13 17 18 11 13 12 15 17 22 21 25 26 19 17 15 17
8 7 5 4 5 5 4 5 6 6 7 9 9 11 11 13 13 13 13 12 15 14 16 14 13 11 11 15 21 23 14 10 13 14 14 14 28 29 30 29 19 18 19
4 3 2 3 4 5 5 5 6 7 9 10 12 12 12 11 12 14 11 14 14 16 14 13 12 10 14 18 20 26 23 20 14 16 14 16 32 35 33 26 27 29 24
2 2 3 4 5 5 6 7 7 8 10 10 11 11 12 11 12 12 13 13 12 13 12 11 11 13 13 12 23 25 25 26 17 13 22 34 33 33 25 25 27 24 6
2 3 4 5 5 5 6 6 7 8 9 11 11 11 11 14 11 10 10 11 11 10 11 12 13 13 14 13 12 12 13 21 18 20 18 22 25 22 18 17 13 2 5
3 4 5 5 6 6 6 7 8 8 9 10 11 11 10 12 12 11 11 11 10 12 13 12 12 14 13 14 23 21 16 15 20 24 13 13 13 12 11 6 5 4 4
4 4 5 6 6 7 7 8 8 7 9 11 9 10 10 10 11 11 12 17 22 26 24 25 19 13 23 28 27 28 29 32 30 13 11 12 12 12 11 4 3 3 4
Wind_Direction
24 21 15 4 2 357 344 241 198 200 171 169 174 188 216 235 235 223 224 215 218 217 211 217 217 215 218 222 218 216 214 234 208 230 267 268 245 236 234 223 229 230 223
40 28 28 22 7 359 351 348 314 224 198 174 190 182 190 220 222 223 227 224 223 220 217 214 218 216 225 225 221 217 220 229 198 225 201 258 265 246 244 242 239 238 230
50 34 32 31 20 8 355 354 350 344 252 186 164 223 248 279 258 256 271 255 241 242 236 239 229 227 227 236 229 222 218 225 218 209 212 224 233 249 237 236 238 235 208
52 43 39 34 23 1 359 358 357 2 359 349 212 201 211 238 234 239 232 233 216 220 220 222 221 223 222 231 232 221 221 218 228 217 223 233 226 247 281 260 236 218 223
65 45 47 48 31 11 4 359 19 20 9 3 356 329 263 243 252 253 259 255 240 223 221 223 227 234 233 236 233 234 227 225 224 227 225 234 242 250 251 263 246 213 209
68 52 51 55 44 19 19 26 33 22 17 14 354 335 318 310 308 302 304 294 288 260 225 217 223 232 238 241 240 239 234 231 229 231 226 220 217 230 234 249 257 251 245
81 60 38 38 36 31 22 27 30 23 14 16 11 4 354 341 327 317 302 304 295 294 273 232 219 228 234 240 243 244 242 236 234 234 234 234 233 234 231 239 251 251 244
72 75 41 47 47 43 30 20 24 22 13 11 7 2 3 358 342 340 334 326 322 316 311 309 276 249 236 241 241 244 248 249 245 241 239 240 238 238 235 234 242 255 252
89 92 84 73 66 52 37 31 18 15 14 7 359 360 358 359 344 337 336 327 321 326 326 322 317 303 276 252 249 245 249 247 246 245 244 242 244 243 236 236 235 243 259
92 81 78 64 49 67 26 19 26 11 3 360 352 345 341 345 338 342 344 342 331 331 328 324 320 314 305 295 278 265 260 259 252 247 245 243 243 244 238 235 238 237 243
112 123 108 131 180 30 25 16 11 15 10 358 358 348 346 348 357 354 352 349 341 339 332 323 313 308 304 303 302 296 290 276 269 263 256 253 249 244 239 238 240 241 238
136 133 153 296 23 352 346 29 25 17 11 6 354 342 346 355 348 342 338 338 331 329 326 324 322 319 308 297 296 295 290 287 288 286 281 274 266 256 246 238 241 240 240
167 150 108 144 344 9 49 34 23 5 7 357 351 346 347 349 341 339 339 333 329 325 324 320 316 314 312 311 301 287 286 285 287 288 291 290 283 273 262 244 243 240 240
150 176 357 28 12 7 38 29 12 9 357 345 346 342 344 344 341 336 330 327 324 319 318 318 316 316 314 310 302 303 313 309 299 290 284 282 281 280 275 264 249 242 238
142 65 44 17 354 29 22 22 1 357 351 340 345 330 340 340 339 333 328 324 321 318 317 314 313 310 313 309 326 325 318 314 307 300 293 286 279 279 275 273 272 264 244
99 63 29 19 26 26 15 10 4 349 334 340 336 322 343 340 327 321 318 315 314 319 318 313 317 318 314 322 316 309 319 315 312 308 303 296 287 283 280 273 262 262 256
98 62 48 46 26 6 4 11 353 343 333 342 324 351 343 331 325 320 318 314 316 318 306 315 308 316 315 311 306 331 331 328 318 312 313 306 295 288 287 286 278 264 255
58 53 41 25 19 3 6 6 355 334 338 325 347 344 331 325 325 322 322 320 320 313 321 309 315 305 304 299 337 350 338 322 318 315 312 309 316 311 296 296 289 287 266
67 57 40 21 354 2 11 357 334 330 321 345 339 330 325 321 322 323 321 321 311 319 310 313 308 304 302 334 338 344 328 321 316 317 321 316 310 307 310 310 296 304 280
53 48 25 4 7 5 357 345 317 316 324 333 326 321 322 319 319 316 318 314 314 313 311 309 304 301 330 332 334 334 321 317 316 319 312 308 304 309 311 307 307 297 293
53 39 17 10 350 332 346 321 321 310 322 322 321 322 321 318 317 316 314 319 314 313 310 308 305 323 328 327 326 326 322 322 324 314 312 309 308 308 305 303 294 286 291
42 40 360 336 318 335 348 333 320 316 325 328 328 323 320 320 318 313 316 314 318 306 309 310 322 321 326 318 321 319 318 329 316 310 307 304 306 301 295 296 290 286 294
29 20 346 332 341 345 349 328 310 319 324 323 317 312 314 317 316 319 319 313 311 315 308 320 323 319 315 314 317 314 319 321 318 306 302 303 298 295 293 287 287 289 198
11 345 340 329 313 327 329 302 308 320 320 313 312 314 317 318 316 311 309 314 307 310 321 319 315 312 312 312 313 316 319 319 317 313 305 301 301 299 294 295 292 231 173
349 340 326 307 312 321 305 300 311 312 313 314 316 317 316 315 311 309 307 301 303 317 313 312 307 306 305 308 317 324 319 318 312 314 310 322 325 324 318 314 354 12 27
327 305 298 301 298 302 305 309 312 312 316 314 313 309 310 308 306 304 305 305 309 310 308 305 303 304 314 314 325 322 322 317 318 320 322 324 324 326 320 323 344 16 70